Weather History for Southend-On-Sea, United Kingdom

Change the Weather History Date:

Tuesday, July 2, 2013

  Actual Average Record
Temperature  
Mean Temperature 58 °F -  
Max Temperature 64 °F 70 °F 84 °F (2006)
Min Temperature 51 °F 55 °F 46 °F (2014)
Degree Days  
Heating Degree Days 8    
Growing Degree Days 8 (Base 50)    
Moisture  
Dew Point 51 °F    
Average Humidity 72    
Maximum Humidity 82    
Minimum Humidity 59    
Precipitation  
Precipitation 0.00 in - - ()
Sea Level Pressure  
Sea Level Pressure 29.85 in    
Wind  
Wind Speed 7 mph ()    
Max Wind Speed 14 mph    
Max Gust Speed -    
Visibility 6.2 miles    
Events Rain    
Averages and records for this station are not official NWS values.
T = Trace of Precipitation, MM = Missing Value Source: Averaged Metar Reports

Daily Weather History Graph

Daily Weather History Graph

Search for Another Location

Airport:

Trip Planner

Search our weather history database for the weather conditions in past years. The results will help you decide how hot, cold, wet, or windy it might be!

Date:

Astronomy

Jul. 02, 2013 Rise Set
Actual Time 4:44 AM BST 9:17 PM BST
Civil Twilight 3:57 AM BST 10:04 PM BST
Nautical Twilight 2:44 AM BST 11:16 PM BST
Astronomical Twilight 1:33 AM BST 12:28 AM BST
Moon 1:03 AM BST (7/2) 3:57 PM BST (7/2)
Length of Visible Light 18h 07m
Length of Day
16h 32m
Waning Crescent, 28% of the Moon is Illuminated
Jul 2
Waning Crescent
Jul 8
New
Jul 16
First Quarter
Jul 22
Full
Jul 29
Last Quarter

Hourly Weather History & Observations

Time (BST) Temp. Dew Point Humidity Pressure Visibility Wind Dir Wind Speed Gust Speed Precip Events Conditions
12:50 AM 51.8 °F 46.4 °F 82% 29.98 in - Calm Calm - N/A   Clear
1:50 AM 51.8 °F 46.4 °F 82% 29.98 in - Calm Calm - N/A   Clear
2:50 AM 55.4 °F 48.2 °F 77% 29.98 in 6.2 mi West 3.5 mph - N/A   Scattered Clouds
3:50 AM 55.4 °F 46.4 °F 72% 29.95 in 6.2 mi West 4.6 mph - N/A   Scattered Clouds
4:50 AM 55.4 °F 46.4 °F 72% 29.95 in 6.2 mi SW 3.5 mph - N/A   Partly Cloudy
5:50 AM 55.4 °F 48.2 °F 77% 29.95 in 6.2 mi WSW 2.3 mph - N/A   Partly Cloudy
6:20 AM 55.4 °F 48.2 °F 77% 29.95 in 6.2 mi West 4.6 mph - N/A   Partly Cloudy
6:50 AM 57.2 °F 50.0 °F 77% 29.95 in 6.2 mi WSW 5.8 mph - N/A   Partly Cloudy
7:20 AM 57.2 °F 48.2 °F 72% 29.95 in 6.2 mi WSW 8.1 mph - N/A   Partly Cloudy
7:50 AM 60.8 °F 50.0 °F 68% 29.95 in - SW 4.6 mph - N/A   Clear
8:20 AM 60.8 °F 50.0 °F 68% 29.95 in - SSW 8.1 mph - N/A   Clear
8:50 AM 60.8 °F 48.2 °F 63% 29.95 in - SSW 9.2 mph - N/A   Clear
9:20 AM 60.8 °F 50.0 °F 68% 29.92 in - South 8.1 mph - N/A   Clear
9:50 AM 62.6 °F 48.2 °F 59% 29.92 in - South 9.2 mph - N/A   Clear
10:20 AM 60.8 °F 48.2 °F 63% 29.92 in - SSW 10.4 mph - N/A   Clear
10:50 AM 62.6 °F 48.2 °F 59% 29.92 in - South 12.7 mph - N/A   Clear
11:20 AM 62.6 °F 50.0 °F 63% 29.89 in - SSW 11.5 mph - N/A   Clear
11:50 AM 62.6 °F 50.0 °F 63% 29.89 in - SSW 13.8 mph - N/A   Clear
12:20 PM 62.6 °F 51.8 °F 68% 29.89 in - South 11.5 mph - N/A   Clear
12:50 PM 62.6 °F 51.8 °F 68% 29.86 in 6.2 mi South 10.4 mph - N/A   Partly Cloudy
1:20 PM 62.6 °F 51.8 °F 68% 29.86 in - South 13.8 mph - N/A   Clear
1:50 PM 62.6 °F 51.8 °F 68% 29.86 in - South 12.7 mph - N/A   Clear
2:20 PM 64.4 °F 51.8 °F 64% 29.83 in - South 13.8 mph - N/A   Clear
2:50 PM 62.6 °F 50.0 °F 63% 29.83 in - South 12.7 mph - N/A   Clear
3:20 PM 62.6 °F 50.0 °F 63% 29.83 in - South 11.5 mph - N/A   Clear
3:50 PM 62.6 °F 50.0 °F 63% 29.83 in - South 9.2 mph - N/A   Clear
4:20 PM 62.6 °F 50.0 °F 63% 29.80 in - South 10.4 mph - N/A   Clear
4:50 PM 62.6 °F 51.8 °F 68% 29.80 in 6.2 mi South 13.8 mph - N/A Rain Light Rain
5:20 PM 62.6 °F 51.8 °F 68% 29.80 in 6.2 mi SSW 12.7 mph - N/A Rain Light Rain
5:50 PM 60.8 °F 53.6 °F 77% 29.77 in 6.2 mi South 9.2 mph - N/A Rain Light Rain
6:20 PM 60.8 °F 53.6 °F 77% 29.74 in 6.2 mi South 10.4 mph - N/A Rain Light Rain
6:50 PM 60.8 °F 55.4 °F 82% 29.74 in 6.2 mi South 8.1 mph - N/A Rain Light Rain
7:20 PM 60.8 °F 53.6 °F 77% 29.74 in 6.2 mi South 10.4 mph - N/A Rain Light Rain
7:50 PM 60.8 °F 55.4 °F 82% 29.74 in 6.2 mi SSW 11.5 mph - N/A   Partly Cloudy
8:20 PM 59.0 °F 53.6 °F 82% 29.74 in 6.2 mi SSW 10.4 mph - N/A   Partly Cloudy
8:50 PM 59.0 °F 51.8 °F 77% 29.71 in 6.2 mi SSW 12.7 mph - N/A   Partly Cloudy
9:20 PM 59.0 °F 51.8 °F 77% 29.71 in - SW 12.7 mph - N/A   Clear
9:50 PM 59.0 °F 51.8 °F 77% 29.71 in - SSW 10.4 mph - N/A   Clear
10:20 PM 57.2 °F 51.8 °F 82% 29.71 in 6.2 mi SSW 10.4 mph - N/A Rain Light Rain
10:50 PM 59.0 °F 53.6 °F 82% 29.68 in 6.2 mi SSW 10.4 mph - N/A Rain Light Rain
11:20 PM 59.0 °F 53.6 °F 82% 29.68 in 6.2 mi SSW 10.4 mph - N/A   Scattered Clouds
11:50 PM 59.0 °F 53.6 °F 82% 29.68 in 6.2 mi SSW 13.8 mph - N/A   Scattered Clouds